SWR068 FGSL-FKYS

Flight info

Callsign SWR068
Flight time 0h 34m
Altitude 23000
Route DE
Aircraft B738/M-SDE2E3FGHIRWXY/LB1

Departure

Time 2026-04-22 00:59
Airport Malabo International Airport (FGSL)

Arrival

Time 2026-04-22 01:34
Airport Yaoundé Nsimalen International Airport (FKYS)
Time Latitude Longitude Altitude Speed Heading
2026-04-22 00:46 3.75834 8.71574 69 ft 0 kts 131°
2026-04-22 00:53 3.75837 8.71571 69 ft 8 kts 131°
2026-04-22 00:54 3.75854 8.71551 69 ft 8 kts 132°
2026-04-22 00:54 3.75871 8.71530 59 ft 8 kts 123°
2026-04-22 00:54 3.75884 8.71506 59 ft 8 kts 114°
2026-04-22 00:54 3.75886 8.71501 68 ft 0 kts 114°
2026-04-22 00:56 3.75898 8.71511 64 ft 4 kts 18°
2026-04-22 00:56 3.75954 8.71527 61 ft 11 kts 14°
2026-04-22 00:57 3.76031 8.71562 68 ft 13 kts 41°
2026-04-22 00:57 3.76104 8.71630 65 ft 15 kts 35°
2026-04-22 00:57 3.76192 8.71703 63 ft 17 kts 42°
2026-04-22 00:57 3.76285 8.71789 66 ft 19 kts 42°
2026-04-22 00:58 3.76385 8.71871 68 ft 16 kts 24°
2026-04-22 00:58 3.76481 8.71815 64 ft 19 kts 294°
2026-04-22 00:58 3.76472 8.71722 56 ft 11 kts 253°
2026-04-22 00:58 3.76415 8.71656 55 ft 21 kts 224°
2026-04-22 00:59 3.76159 8.71428 64 ft 80 kts 222°
2026-04-22 00:59 3.75596 8.70930 69 ft 134 kts 221°
2026-04-22 00:59 3.74793 8.70217 269 ft 164 kts 221°
2026-04-22 00:59 3.73976 8.69463 1054 ft 157 kts 229°
2026-04-22 01:00 3.73695 8.68415 1629 ft 167 kts 282°
2026-04-22 01:00 3.74358 8.67444 2164 ft 178 kts 317°
2026-04-22 01:00 3.75558 8.67029 2581 ft 194 kts
2026-04-22 01:00 3.76900 8.67349 3077 ft 209 kts 18°
2026-04-22 01:01 3.78302 8.67901 3548 ft 224 kts 22°
2026-04-22 01:01 3.79619 8.68842 4082 ft 241 kts 46°
2026-04-22 01:01 3.80754 8.70148 4706 ft 257 kts 51°
2026-04-22 01:01 3.81879 8.71616 5279 ft 274 kts 60°
2026-04-22 01:02 3.82379 8.73452 6095 ft 278 kts 87°
2026-04-22 01:02 3.82388 8.75411 6915 ft 284 kts 90°
2026-04-22 01:02 3.82332 8.77397 7738 ft 287 kts 91°
2026-04-22 01:02 3.82260 8.79401 8554 ft 289 kts 91°
2026-04-22 01:03 3.82197 8.81421 9368 ft 291 kts 91°
2026-04-22 01:03 3.82150 8.83454 10162 ft 294 kts 91°
2026-04-22 01:03 3.82107 8.85562 10533 ft 311 kts 90°
2026-04-22 01:03 3.82061 8.87782 10950 ft 325 kts 90°
2026-04-22 01:04 3.82010 8.90056 11669 ft 328 kts 90°
2026-04-22 01:04 3.81956 8.92337 12471 ft 328 kts 90°
2026-04-22 01:04 3.81902 8.94624 13233 ft 330 kts 90°
2026-04-22 01:04 3.81848 8.96933 13912 ft 334 kts 90°
2026-04-22 01:05 3.81796 8.99240 14574 ft 338 kts 91°
2026-04-22 01:05 3.81741 9.01610 15214 ft 342 kts 91°
2026-04-22 01:05 3.81686 9.04004 15843 ft 347 kts 91°
2026-04-22 01:05 3.81630 9.06431 16453 ft 351 kts 91°
2026-04-22 01:06 3.81573 9.08887 17056 ft 355 kts 91°
2026-04-22 01:06 3.81515 9.11372 17646 ft 359 kts 91°
2026-04-22 01:06 3.81457 9.13879 18209 ft 363 kts 91°
2026-04-22 01:06 3.81398 9.16415 18747 ft 367 kts 91°
2026-04-22 01:07 3.81338 9.18984 19278 ft 370 kts 91°
2026-04-22 01:07 3.81277 9.21574 19780 ft 375 kts 91°
2026-04-22 01:07 3.81216 9.24197 20278 ft 378 kts 91°
2026-04-22 01:07 3.81155 9.26839 20762 ft 382 kts 91°
2026-04-22 01:08 3.81092 9.29511 21218 ft 385 kts 91°
2026-04-22 01:08 3.81029 9.32206 21671 ft 388 kts 91°
2026-04-22 01:08 3.80965 9.34934 21870 ft 397 kts 91°
2026-04-22 01:08 3.80900 9.37709 21875 ft 397 kts 91°
2026-04-22 01:09 3.80835 9.40451 21874 ft 392 kts 91°
2026-04-22 01:09 3.80771 9.43178 21875 ft 393 kts 91°
2026-04-22 01:09 3.80706 9.45915 21878 ft 404 kts 91°
2026-04-22 01:09 3.80639 9.48767 21877 ft 414 kts 91°
2026-04-22 01:10 3.80570 9.51661 21874 ft 414 kts 91°
2026-04-22 01:10 3.80502 9.54534 21873 ft 411 kts 91°
2026-04-22 01:10 3.80435 9.57367 21873 ft 403 kts 91°
2026-04-22 01:10 3.80369 9.60145 21871 ft 396 kts 91°
2026-04-22 01:11 3.80304 9.62891 21873 ft 393 kts 91°
2026-04-22 01:11 3.80239 9.65624 21874 ft 391 kts 91°
2026-04-22 01:11 3.80174 9.68343 21874 ft 390 kts 91°
2026-04-22 01:11 3.80109 9.71058 21878 ft 394 kts 91°
2026-04-22 01:12 3.80042 9.73847 21879 ft 407 kts 91°
2026-04-22 01:12 3.79974 9.76704 21879 ft 413 kts 91°
2026-04-22 01:12 3.79905 9.79575 21881 ft 411 kts 91°
2026-04-22 01:12 3.79837 9.82397 21879 ft 411 kts 91°
2026-04-22 01:13 3.79768 9.85261 21877 ft 411 kts 91°
2026-04-22 01:13 3.79700 9.88118 21877 ft 411 kts 91°
2026-04-22 01:13 3.79631 9.90978 21875 ft 411 kts 91°
2026-04-22 01:13 3.79562 9.93837 21876 ft 411 kts 91°
2026-04-22 01:14 3.79492 9.96693 21876 ft 411 kts 91°
2026-04-22 01:14 3.79423 9.99555 21877 ft 411 kts 91°
2026-04-22 01:14 3.79354 10.02413 21877 ft 411 kts 91°
2026-04-22 01:14 3.79284 10.05274 21877 ft 411 kts 91°
2026-04-22 01:15 3.79215 10.08137 21883 ft 411 kts 91°
2026-04-22 01:15 3.79145 10.11001 21885 ft 411 kts 91°
2026-04-22 01:15 3.79015 10.13856 21882 ft 411 kts 97°
2026-04-22 01:15 3.78555 10.16682 21890 ft 411 kts 99°
2026-04-22 01:16 3.78061 10.19468 21888 ft 411 kts 100°
2026-04-22 01:16 3.77537 10.22284 21888 ft 411 kts 100°
2026-04-22 01:16 3.77006 10.25093 21892 ft 411 kts 100°
2026-04-22 01:16 3.76482 10.27911 21894 ft 411 kts 100°
2026-04-22 01:17 3.75967 10.30725 21894 ft 412 kts 100°
2026-04-22 01:17 3.75454 10.33551 21898 ft 412 kts 100°
2026-04-22 01:17 3.74940 10.36373 21897 ft 412 kts 100°
2026-04-22 01:17 3.74422 10.39196 21897 ft 412 kts 100°
2026-04-22 01:18 3.73902 10.42016 21900 ft 412 kts 100°
2026-04-22 01:18 3.73382 10.44836 21903 ft 412 kts 100°
2026-04-22 01:18 3.72864 10.47659 21903 ft 412 kts 100°
2026-04-22 01:18 3.72346 10.50483 21902 ft 412 kts 100°
2026-04-22 01:19 3.71827 10.53307 21909 ft 412 kts 100°
2026-04-22 01:19 3.71309 10.56128 21911 ft 412 kts 100°
2026-04-22 01:19 3.70790 10.58949 21915 ft 412 kts 100°
2026-04-22 01:19 3.70271 10.61770 21918 ft 413 kts 100°
2026-04-22 01:20 3.69758 10.64565 21900 ft 411 kts 100°
2026-04-22 01:20 3.69242 10.67367 21408 ft 408 kts 100°
2026-04-22 01:20 3.68734 10.70131 20677 ft 401 kts 100°
2026-04-22 01:20 3.68232 10.72859 19931 ft 396 kts 100°
2026-04-22 01:21 3.67737 10.75548 19193 ft 390 kts 100°
2026-04-22 01:21 3.67248 10.78203 18446 ft 385 kts 100°
2026-04-22 01:21 3.66767 10.80820 17718 ft 380 kts 100°
2026-04-22 01:21 3.66292 10.83400 16965 ft 374 kts 100°
2026-04-22 01:22 3.65823 10.85943 16211 ft 369 kts 99°
2026-04-22 01:22 3.65361 10.88454 15453 ft 365 kts 99°
2026-04-22 01:22 3.64904 10.90933 14753 ft 359 kts 99°
2026-04-22 01:22 3.64461 10.93329 14476 ft 342 kts 99°
2026-04-22 01:23 3.64041 10.95608 14225 ft 325 kts 99°
2026-04-22 01:23 3.63640 10.97784 13995 ft 309 kts 99°
2026-04-22 01:23 3.63258 10.99855 13702 ft 297 kts 98°
2026-04-22 01:23 3.62888 11.01865 13235 ft 291 kts 98°
2026-04-22 01:24 3.62524 11.03841 12702 ft 287 kts 98°
2026-04-22 01:24 3.62162 11.05801 12177 ft 284 kts 98°
2026-04-22 01:24 3.61806 11.07736 11639 ft 281 kts 98°
2026-04-22 01:24 3.61452 11.09657 11100 ft 279 kts 98°
2026-04-22 01:25 3.61110 11.11511 10726 ft 272 kts 98°
2026-04-22 01:25 3.60767 11.13370 10217 ft 271 kts 98°
2026-04-22 01:25 3.60425 11.15233 9676 ft 272 kts 99°
2026-04-22 01:25 3.60081 11.17097 9134 ft 273 kts 99°
2026-04-22 01:26 3.59736 11.18967 8617 ft 273 kts 99°
2026-04-22 01:26 3.59391 11.20836 8123 ft 273 kts 100°
2026-04-22 01:26 3.59047 11.22702 7645 ft 271 kts 100°
2026-04-22 01:26 3.58704 11.24558 7153 ft 271 kts 100°
2026-04-22 01:27 3.58363 11.26408 6687 ft 269 kts 100°
2026-04-22 01:27 3.58026 11.28234 6223 ft 267 kts 100°
2026-04-22 01:27 3.57689 11.30061 5737 ft 266 kts 100°
2026-04-22 01:27 3.57353 11.31878 5290 ft 265 kts 101°
2026-04-22 01:28 3.57020 11.33683 4835 ft 263 kts 101°
2026-04-22 01:28 3.56689 11.35479 4634 ft 262 kts 101°
2026-04-22 01:28 3.56360 11.37284 4616 ft 264 kts 100°
2026-04-22 01:28 3.56047 11.39064 4609 ft 263 kts 100°
2026-04-22 01:29 3.55734 11.40867 4605 ft 263 kts 100°
2026-04-22 01:29 3.55418 11.42669 4608 ft 263 kts 100°
2026-04-22 01:29 3.55099 11.44474 4607 ft 263 kts 100°
2026-04-22 01:29 3.54780 11.46278 4605 ft 263 kts 100°
2026-04-22 01:30 3.54461 11.48079 4602 ft 262 kts 100°
2026-04-22 01:30 3.54148 11.49851 4599 ft 254 kts 100°
2026-04-22 01:30 3.54097 11.51560 4576 ft 242 kts 74°
2026-04-22 01:30 3.54983 11.52917 4621 ft 234 kts 36°
2026-04-22 01:31 3.56488 11.53403 4643 ft 226 kts 360°
2026-04-22 01:31 3.58003 11.53331 4531 ft 210 kts 357°
2026-04-22 01:31 3.59447 11.53324 4168 ft 207 kts
2026-04-22 01:31 3.60870 11.53423 3883 ft 203 kts
2026-04-22 01:32 3.62259 11.53550 3861 ft 198 kts
2026-04-22 01:32 3.63612 11.53759 3276 ft 195 kts 10°
2026-04-22 01:32 3.64872 11.54004 2915 ft 177 kts 11°
2026-04-22 01:32 3.66025 11.54226 2644 ft 162 kts 10°
2026-04-22 01:33 3.67120 11.54426 2434 ft 159 kts
2026-04-22 01:33 3.68187 11.54616 2339 ft 147 kts
2026-04-22 01:33 3.68802 11.54723 2308 ft 124 kts
2026-04-22 01:33 3.69958 11.54965 2431 ft 135 kts 11°
2026-04-22 01:34 3.70869 11.55092 2280 ft 129 kts
2026-04-22 01:34 3.71579 11.55218 2269 ft 73 kts 10°
2026-04-22 01:34 3.71813 11.55264 2268 ft 7 kts 319°
2026-04-22 01:34 3.71764 11.55236 2269 ft 10 kts 200°
2026-04-22 01:35 3.71707 11.55214 2269 ft 8 kts 206°
2026-04-22 01:35 3.71676 11.55194 2269 ft 9 kts 214°
2026-04-22 01:35 3.71594 11.55132 2266 ft 20 kts 224°
2026-04-22 01:35 3.71505 11.55051 2264 ft 14 kts 229°
2026-04-22 01:36 3.71479 11.54969 2263 ft 9 kts 247°
2026-04-22 01:36 3.71474 11.54922 2262 ft 6 kts 276°
2026-04-22 01:36 3.71481 11.54884 2262 ft 4 kts 281°